Precipitable_Water
0.62 0.60 0.59 0.56 0.54 0.51 0.49 0.48 0.48 0.48 0.49 0.50 0.50 0.50 0.49 0.48 0.48 0.50 0.37 0.43 0.47 0.79 1.08 1.15 1.31 1.30 1.31 1.25 1.28 1.25 0.79 0.57 0.62 0.75 0.86 1.04 0.95 1.04 1.18 1.09 1.18 1.22 1.21 1.32 1.46
0.57 0.56 0.55 0.56 0.55 0.54 0.52 0.51 0.50 0.49 0.48 0.48 0.48 0.48 0.46 0.45 0.36 0.28 0.35 0.40 0.52 0.84 0.89 0.87 0.94 1.07 0.98 1.03 1.08 0.95 0.66 0.54 0.63 0.70 0.85 0.95 0.92 0.94 0.91 1.00 1.01 1.11 1.24 1.35 1.37
0.47 0.47 0.47 0.48 0.48 0.49 0.50 0.50 0.51 0.51 0.52 0.53 0.52 0.50 0.45 0.45 0.27 0.22 0.49 0.49 0.56 0.78 0.93 0.95 0.86 0.96 0.84 0.86 0.87 0.83 0.61 0.57 0.58 0.68 0.90 0.94 0.90 0.97 0.86 0.84 1.00 0.99 1.12 1.23 1.23
0.37 0.37 0.38 0.39 0.40 0.42 0.44 0.46 0.48 0.50 0.51 0.53 0.55 0.55 0.48 0.39 0.15 0.35 0.48 0.59 0.70 0.88 0.87 0.87 0.78 0.78 0.70 0.67 0.69 0.65 0.64 0.58 0.57 0.76 0.87 0.87 0.88 0.84 0.91 0.89 1.10 1.17 1.21 1.20 1.13
0.35 0.34 0.34 0.34 0.34 0.35 0.38 0.41 0.44 0.45 0.50 0.53 0.57 0.58 0.48 0.30 0.23 0.43 0.52 0.65 0.75 0.69 0.62 0.64 0.69 0.69 0.53 0.55 0.62 0.62 0.55 0.52 0.53 0.72 0.92 0.89 0.78 0.86 0.83 1.02 1.07 1.18 1.17 1.10 1.11
0.35 0.34 0.33 0.32 0.30 0.30 0.33 0.35 0.36 0.39 0.49 0.58 0.62 0.61 0.40 0.24 0.36 0.36 0.46 0.57 0.63 0.59 0.54 0.65 0.66 0.66 0.55 0.55 0.60 0.61 0.56 0.71 0.62 0.72 0.83 0.76 0.76 0.86 0.87 0.96 0.94 1.07 1.10 1.08 1.10
0.36 0.35 0.34 0.32 0.29 0.28 0.31 0.30 0.31 0.43 0.51 0.61 0.65 0.58 0.39 0.32 0.37 0.34 0.37 0.33 0.47 0.51 0.43 0.54 0.62 0.61 0.58 0.51 0.60 0.62 0.59 0.79 0.78 0.77 0.77 0.91 0.70 0.69 0.86 0.91 0.83 0.97 1.08 1.12 1.11
0.36 0.35 0.34 0.31 0.30 0.27 0.27 0.29 0.36 0.46 0.47 0.53 0.63 0.58 0.36 0.42 0.41 0.34 0.34 0.34 0.40 0.47 0.44 0.53 0.62 0.54 0.59 0.57 0.58 0.58 0.57 0.65 0.77 0.78 0.86 0.94 0.58 0.80 0.88 0.83 0.75 0.90 1.02 1.08 1.10
0.38 0.36 0.34 0.31 0.29 0.25 0.25 0.31 0.45 0.49 0.50 0.53 0.48 0.50 0.35 0.50 0.38 0.36 0.36 0.31 0.37 0.39 0.47 0.46 0.49 0.48 0.50 0.47 0.47 0.52 0.49 0.64 0.64 0.84 0.89 0.93 0.78 0.98 0.99 0.91 0.74 0.77 0.97 1.04 1.06
0.40 0.39 0.36 0.32 0.29 0.26 0.22 0.31 0.46 0.49 0.48 0.56 0.49 0.31 0.39 0.37 0.42 0.41 0.35 0.36 0.34 0.33 0.32 0.40 0.35 0.37 0.45 0.43 0.37 0.45 0.46 0.59 0.57 0.73 0.83 0.80 0.84 0.95 1.03 1.01 0.85 0.69 0.87 0.96 0.99
0.42 0.41 0.40 0.35 0.30 0.25 0.22 0.20 0.18 0.22 0.14 0.12 0.19 0.31 0.38 0.47 0.46 0.41 0.37 0.28 0.25 0.24 0.19 0.33 0.28 0.26 0.36 0.42 0.50 0.51 0.46 0.53 0.62 0.77 0.76 0.75 0.79 0.91 1.00 0.99 0.97 0.86 0.71 0.85 0.90
0.45 0.44 0.43 0.38 0.30 0.26 0.25 0.13 0.16 0.20 0.11 0.14 0.12 0.16 0.25 0.41 0.37 0.39 0.38 0.24 0.19 0.16 0.19 0.28 0.25 0.29 0.38 0.42 0.46 0.50 0.47 0.48 0.64 0.75 0.74 0.71 0.71 0.82 0.94 0.94 0.98 1.00 0.82 0.74 0.85
0.50 0.50 0.48 0.42 0.32 0.30 0.22 0.19 0.30 0.28 0.15 0.12 0.16 0.17 0.18 0.28 0.34 0.35 0.34 0.25 0.18 0.15 0.16 0.20 0.18 0.32 0.34 0.37 0.38 0.44 0.46 0.48 0.57 0.68 0.72 0.67 0.59 0.64 0.82 0.97 1.03 1.05 1.06 0.92 0.80
0.50 0.51 0.51 0.44 0.33 0.27 0.21 0.30 0.31 0.31 0.12 0.15 0.20 0.23 0.24 0.22 0.25 0.41 0.39 0.27 0.20 0.15 0.16 0.20 0.22 0.25 0.33 0.34 0.39 0.39 0.49 0.48 0.52 0.59 0.48 0.62 0.42 0.54 0.69 0.81 0.88 0.95 1.00 1.03 0.92
0.51 0.52 0.51 0.48 0.34 0.28 0.27 0.32 0.29 0.30 0.05 0.17 0.25 0.33 0.31 0.22 0.27 0.30 0.43 0.35 0.21 0.15 0.17 0.17 0.19 0.23 0.28 0.32 0.36 0.38 0.49 0.43 0.47 0.54 0.56 0.56 0.49 0.60 0.68 0.67 0.76 0.87 0.95 1.01 1.04
0.50 0.52 0.51 0.47 0.44 0.35 0.34 0.31 0.28 0.13 0.06 0.11 0.23 0.25 0.24 0.27 0.26 0.37 0.37 0.38 0.34 0.19 0.16 0.16 0.24 0.26 0.24 0.34 0.36 0.44 0.47 0.45 0.47 0.50 0.43 0.51 0.53 0.52 0.61 0.59 0.70 0.83 0.85 0.91 0.94
0.51 0.48 0.48 0.46 0.34 0.37 0.35 0.24 0.12 0.07 0.10 0.08 0.15 0.19 0.24 0.23 0.25 0.29 0.31 0.31 0.26 0.20 0.15 0.16 0.20 0.24 0.25 0.28 0.36 0.37 0.43 0.36 0.32 0.32 0.35 0.43 0.46 0.55 0.65 0.65 0.63 0.68 0.80 0.88 0.99
0.50 0.52 0.46 0.44 0.43 0.40 0.32 0.19 0.09 0.09 0.09 0.11 0.12 0.11 0.15 0.22 0.24 0.27 0.31 0.29 0.31 0.25 0.19 0.12 0.10 0.20 0.25 0.25 0.30 0.34 0.40 0.37 0.29 0.29 0.29 0.42 0.37 0.47 0.67 0.68 0.65 0.69 0.78 0.87 0.88
0.51 0.44 0.42 0.43 0.45 0.40 0.26 0.15 0.12 0.10 0.13 0.13 0.12 0.08 0.09 0.23 0.25 0.26 0.28 0.30 0.31 0.28 0.20 0.16 0.14 0.22 0.24 0.25 0.31 0.33 0.34 0.45 0.39 0.38 0.32 0.35 0.35 0.58 0.64 0.58 0.59 0.62 0.64 0.70 0.86
0.50 0.44 0.39 0.44 0.41 0.36 0.23 0.16 0.16 0.19 0.21 0.17 0.11 0.10 0.12 0.22 0.25 0.25 0.27 0.34 0.33 0.33 0.30 0.25 0.16 0.19 0.21 0.24 0.25 0.32 0.39 0.35 0.39 0.32 0.28 0.33 0.33 0.42 0.54 0.54 0.58 0.59 0.56 0.63 0.71
0.53 0.38 0.45 0.40 0.40 0.31 0.20 0.18 0.24 0.29 0.30 0.19 0.14 0.12 0.14 0.18 0.26 0.25 0.28 0.37 0.39 0.35 0.33 0.29 0.22 0.20 0.24 0.21 0.19 0.23 0.30 0.37 0.41 0.38 0.32 0.29 0.32 0.52 0.58 0.58 0.60 0.55 0.56 0.58 0.63
0.51 0.33 0.43 0.41 0.29 0.31 0.23 0.29 0.30 0.27 0.30 0.27 0.22 0.17 0.18 0.18 0.21 0.26 0.28 0.34 0.40 0.41 0.32 0.30 0.27 0.19 0.20 0.24 0.25 0.24 0.24 0.34 0.33 0.35 0.37 0.38 0.37 0.54 0.59 0.62 0.60 0.56 0.59 0.62 0.72
0.48 0.42 0.46 0.41 0.22 0.22 0.24 0.23 0.23 0.21 0.25 0.27 0.26 0.23 0.21 0.15 0.16 0.26 0.30 0.35 0.38 0.38 0.38 0.34 0.26 0.20 0.23 0.20 0.24 0.21 0.21 0.29 0.35 0.41 0.36 0.33 0.40 0.58 0.57 0.60 0.60 0.57 0.55 0.66 0.74
0.52 0.36 0.35 0.37 0.33 0.26 0.23 0.23 0.24 0.32 0.29 0.33 0.34 0.35 0.28 0.19 0.21 0.26 0.30 0.35 0.38 0.36 0.45 0.45 0.29 0.23 0.18 0.18 0.20 0.19 0.22 0.23 0.30 0.33 0.36 0.34 0.42 0.50 0.55 0.56 0.57 0.61 0.61 0.59 0.79
0.55 0.41 0.43 0.24 0.26 0.27 0.28 0.27 0.26 0.31 0.39 0.44 0.36 0.32 0.31 0.22 0.19 0.23 0.26 0.33 0.38 0.39 0.44 0.43 0.29 0.27 0.26 0.24 0.24 0.24 0.21 0.21 0.24 0.31 0.33 0.34 0.42 0.48 0.54 0.58 0.60 0.62 0.59 0.60 0.62
0.53 0.47 0.46 0.31 0.29 0.28 0.28 0.28 0.31 0.36 0.35 0.39 0.42 0.42 0.34 0.25 0.25 0.27 0.32 0.38 0.34 0.40 0.43 0.44 0.33 0.31 0.26 0.26 0.24 0.21 0.22 0.20 0.19 0.25 0.33 0.39 0.42 0.49 0.56 0.62 0.60 0.56 0.58 0.61 0.62
0.69 0.65 0.51 0.35 0.26 0.26 0.28 0.29 0.32 0.40 0.43 0.46 0.46 0.41 0.33 0.36 0.34 0.35 0.42 0.39 0.38 0.37 0.42 0.42 0.36 0.32 0.25 0.26 0.25 0.21 0.22 0.19 0.19 0.19 0.24 0.30 0.38 0.48 0.49 0.54 0.58 0.54 0.57 0.59 0.59
Wind_Speed
14 15 16 16 17 18 19 20 21 21 22 22 21 21 20 19 19 18 17 14 14 14 14 14 12 11 10 7 6 2 2 1 2 2 5 8 6 4 4 7 5 7 7 17 18
16 16 17 17 18 18 18 19 19 20 21 21 21 21 20 19 18 20 19 17 17 18 18 17 15 13 10 8 5 4 2 1 1 1 5 9 7 6 6 8 8 9 11 17 19
17 18 18 19 19 19 19 20 20 19 19 20 20 20 19 18 18 16 16 18 19 20 19 18 16 15 13 10 8 4 3 0 1 4 7 9 8 6 7 7 9 10 15 18 19
18 19 20 20 21 21 21 21 21 20 20 19 18 18 18 17 15 14 12 16 19 21 20 19 19 18 14 12 10 7 5 3 2 7 9 10 9 6 7 5 9 11 14 18 18
20 21 21 22 22 22 22 22 21 21 21 19 18 17 16 17 20 17 16 15 18 19 22 22 21 19 15 12 11 9 5 3 6 9 9 10 9 6 7 5 10 12 15 17 17
22 22 23 23 24 24 24 22 22 22 21 19 18 16 16 18 17 21 21 19 19 20 21 23 21 21 14 14 13 7 5 4 9 11 12 11 9 7 7 7 10 13 15 17 17
24 25 25 25 25 25 24 24 23 21 20 19 18 17 18 20 17 17 23 25 23 22 22 24 22 22 16 15 15 11 8 8 12 13 12 11 8 7 8 8 10 13 15 16 16
26 26 27 27 27 27 25 25 22 20 18 17 17 17 18 17 20 20 19 23 25 24 22 24 24 22 19 14 15 14 12 12 13 14 11 13 8 9 9 9 10 12 14 15 16
28 29 29 29 29 27 26 24 21 19 18 16 17 18 18 17 20 23 23 21 25 25 22 23 25 24 22 20 19 17 16 14 14 16 12 14 7 10 10 9 9 11 13 14 15
30 31 31 30 30 27 27 24 21 20 19 20 19 19 20 15 17 20 26 24 22 26 24 24 24 24 25 24 22 20 18 17 15 17 15 15 11 9 10 10 8 9 13 15 16
32 32 32 31 30 28 26 23 22 20 19 23 24 24 21 17 19 19 23 29 28 27 28 29 28 29 28 26 23 20 20 18 17 15 17 15 14 12 11 11 10 9 12 15 16
32 32 31 31 29 26 23 20 20 23 26 27 31 30 30 25 20 22 23 28 31 30 30 28 32 29 27 27 27 19 22 21 18 16 17 15 15 14 14 14 12 12 12 14 16
32 32 31 31 27 24 21 20 23 24 25 24 24 26 27 29 26 26 27 30 33 33 33 30 28 30 30 28 28 26 24 22 20 18 18 14 16 15 15 14 14 14 14 14 15
32 31 30 29 24 24 21 24 23 22 22 18 18 20 23 26 29 30 30 28 29 35 33 32 30 32 31 31 30 29 25 22 21 19 18 19 14 17 17 16 16 16 17 17 16
31 30 29 24 23 21 24 24 22 19 18 15 16 19 21 27 19 32 31 32 29 32 35 33 32 31 35 33 31 28 24 23 20 22 20 17 16 10 15 15 17 17 18 18 18
31 30 27 21 20 21 23 22 20 21 20 17 17 19 19 24 29 22 37 34 28 31 36 34 29 31 33 33 33 28 24 24 20 21 22 21 19 17 14 16 15 17 18 19 19
31 30 24 21 20 22 21 18 20 22 16 18 19 20 21 21 26 31 35 40 34 31 33 35 33 31 30 34 35 34 31 23 22 22 19 23 19 18 9 12 10 12 17 17 18
32 28 22 20 22 21 19 18 22 21 25 21 23 24 26 24 25 33 33 38 40 34 29 34 37 36 34 37 34 39 35 29 26 23 21 16 19 19 19 17 13 12 13 16 18
32 26 20 21 21 20 19 19 20 19 20 23 24 28 27 24 24 24 38 38 43 38 29 33 36 36 33 34 38 38 40 34 27 25 21 19 21 18 17 16 14 13 12 13 16
29 24 19 22 23 21 19 22 21 19 24 26 26 24 26 23 22 22 31 37 41 42 35 26 32 32 34 35 37 36 38 36 29 30 25 22 21 18 22 20 16 15 12 11 13
27 22 20 25 22 19 20 22 21 24 24 26 28 29 28 29 24 23 24 24 33 41 38 29 29 31 35 38 36 36 38 38 31 27 23 21 21 21 18 18 16 13 10 9 13
25 21 23 24 19 18 21 22 26 30 30 31 31 32 31 30 30 28 27 24 22 30 43 38 25 29 38 35 37 36 38 41 32 33 29 20 18 20 22 19 15 11 8 8 12
26 21 22 21 17 22 25 30 34 34 34 31 32 32 34 35 31 32 30 26 23 26 29 39 32 30 29 36 37 40 39 39 39 31 31 27 22 18 18 18 16 11 6 4 11
24 20 19 17 20 23 26 26 20 19 25 32 33 28 31 35 37 30 29 24 25 27 27 31 35 35 33 34 37 37 39 40 40 36 32 32 30 19 21 19 17 15 8 3 9
21 18 19 20 22 23 21 15 11 12 13 19 27 28 27 32 35 37 33 28 28 27 29 32 37 33 31 32 35 38 37 39 39 39 37 33 32 30 24 20 17 16 12 6 8
21 19 19 22 21 20 13 9 8 11 10 14 16 22 25 29 29 25 29 29 28 25 26 32 35 34 32 28 30 38 38 40 39 37 36 35 32 30 32 25 23 18 15 11 8
21 17 18 19 18 17 9 7 11 5 6 13 17 17 21 22 26 31 30 31 29 26 26 28 34 38 31 33 27 33 35 39 36 39 37 35 30 24 28 28 28 24 21 16 13
Wind_Direction
315 311 308 305 301 296 292 288 284 281 279 277 275 274 272 271 267 254 249 242 232 214 205 196 196 193 189 203 213 235 225 162 137 163 144 150 142 127 128 140 151 162 154 157 157
317 314 311 307 304 301 298 294 290 285 281 277 274 271 269 269 261 253 245 237 224 209 203 199 198 193 198 206 202 210 221 118 198 157 159 158 150 132 140 144 143 143 144 155 158
318 315 312 309 305 302 299 295 292 289 284 279 274 270 267 264 255 245 239 229 216 208 206 204 205 203 212 209 203 194 231 32 194 178 161 156 149 133 136 157 155 151 152 158 161
319 316 313 310 307 304 300 296 292 288 284 279 274 268 263 251 243 235 227 213 206 204 207 207 205 204 210 209 203 224 224 245 174 162 160 159 147 146 147 122 161 157 159 162 166
319 316 313 311 307 304 301 297 292 287 282 277 270 264 256 244 241 229 217 208 202 207 207 206 205 205 213 209 209 222 226 227 193 171 165 156 158 139 151 128 151 156 162 166 170
319 317 314 311 308 306 301 296 292 288 280 273 265 256 248 246 241 227 220 213 211 210 210 207 208 208 219 215 212 198 226 205 175 166 163 163 156 159 145 140 150 160 165 170 172
319 316 314 311 308 306 301 297 292 284 278 269 258 249 246 243 239 227 223 222 220 216 213 210 210 207 210 214 214 213 206 168 168 167 165 163 164 177 149 151 155 164 169 174 176
318 316 313 310 308 304 300 296 288 283 275 265 252 246 248 242 237 228 221 219 216 214 214 209 207 212 214 216 211 211 210 188 180 177 175 188 147 164 158 158 161 170 174 178 181
317 315 312 309 306 302 299 294 284 278 271 258 251 246 247 241 235 227 220 216 209 208 211 207 208 211 208 213 207 206 206 204 184 192 179 192 144 157 172 167 165 175 180 183 185
315 314 311 309 305 300 297 289 279 273 267 259 251 244 239 236 232 226 216 211 205 203 207 205 206 209 211 207 207 202 215 198 193 194 193 194 195 180 181 180 175 178 186 189 191
313 313 311 308 304 298 293 283 280 264 267 259 253 248 245 241 231 223 215 211 212 211 209 208 210 210 208 208 212 214 206 203 198 188 200 209 208 195 196 197 193 189 190 194 196
314 312 311 308 303 298 289 283 279 274 271 265 251 244 241 241 234 222 211 206 209 211 209 208 216 212 212 209 214 215 211 209 199 196 209 211 217 215 206 212 209 201 197 198 198
315 313 311 308 299 294 288 285 281 278 268 268 248 240 235 227 226 220 211 212 210 211 210 213 216 213 211 210 211 213 213 210 211 207 217 228 226 222 213 218 219 215 209 204 201
319 317 314 309 294 295 283 288 282 274 266 249 240 232 228 226 229 221 214 211 214 213 211 218 215 210 209 213 208 211 210 218 213 210 217 212 228 212 214 218 221 219 214 211 207
323 319 316 309 299 293 289 287 279 266 262 249 232 229 230 222 230 217 213 215 217 213 210 214 214 209 210 209 207 211 204 213 215 213 224 210 227 214 207 220 223 221 218 216 211
325 322 317 308 300 298 295 285 268 258 252 248 236 234 239 229 225 223 210 214 219 216 214 218 213 213 213 211 209 208 206 211 214 218 221 222 218 223 209 222 224 215 216 213 212
324 321 315 308 305 302 297 279 265 252 253 243 240 239 245 237 228 220 209 210 210 207 210 212 211 214 211 208 206 206 202 201 210 213 220 217 216 223 203 202 205 207 207 208 209
323 318 311 306 306 302 294 275 261 262 249 253 254 250 242 241 231 217 215 213 212 211 209 209 211 209 205 208 203 204 205 208 204 211 215 210 219 224 228 225 220 211 211 212 212
321 316 306 308 307 300 288 269 268 270 261 258 257 248 237 225 222 224 218 217 211 211 214 209 215 205 210 207 207 205 213 211 219 222 223 212 220 229 208 206 209 211 208 210 213
321 315 307 310 306 295 280 271 275 272 266 254 248 238 228 221 224 220 218 217 214 213 215 211 213 206 208 206 212 214 208 211 218 218 219 223 216 216 207 208 212 207 210 216 213
322 313 311 313 304 289 280 280 278 274 269 250 243 239 230 226 222 226 216 210 215 211 213 215 214 203 203 208 204 206 208 213 214 217 213 221 215 212 196 193 197 209 222 228 223
324 316 315 317 300 296 290 288 278 272 263 251 243 237 232 224 225 223 216 220 219 216 209 213 212 214 212 209 212 210 211 209 214 209 222 225 218 199 200 202 207 203 220 247 225
325 318 318 319 310 307 300 293 281 269 255 243 235 230 228 223 221 218 220 213 213 210 208 207 214 210 203 205 209 212 211 212 217 217 216 217 209 188 192 197 199 207 215 236 204
327 324 325 322 320 315 313 302 286 269 250 236 232 230 225 216 215 214 212 210 215 218 216 210 212 214 209 208 204 208 209 212 212 215 211 215 214 205 205 209 216 207 210 195 188
330 331 331 325 326 322 319 304 305 289 241 225 217 215 216 213 214 216 219 221 217 208 211 209 211 211 214 207 209 209 212 210 213 215 216 213 215 219 206 209 204 198 200 198 189
330 328 329 325 327 326 317 309 298 298 219 211 206 214 210 209 210 209 208 212 212 210 211 209 210 211 213 210 214 208 212 213 214 215 220 221 224 218 222 218 214 211 211 213 211
333 326 330 332 333 329 322 312 313 297 223 217 215 223 203 201 214 216 215 215 217 215 211 209 207 207 211 210 208 213 209 213 214 216 217 218 214 210 211 215 218 223 227 227 220